星链-3728 (STARLINK-3728 )

导读 | 星芒AI

STARLINK-3728 是 SpaceX Starlink 项目中的一颗低轨通信卫星,属于该星座的多个发射批次之一。该卫星由 Falcon 9 火箭送入近地轨道,旨在为全球用户提供高速互联网服务。Starlink 卫星采用先进推进系统和激光通信技术,以提升网络效率和减少延迟。STARLINK-3728 的部署有助于扩大 Starlink 的覆盖范围,特别是在偏远和网络基础设施薄弱的地区。该卫星遵循 SpaceX 的可持续航天政策,具备自动避撞和最终离轨能力,以减少太空碎片风险。

基本信息
目录编号:
52361
目录名称:
STARLINK-3728
国际标识:
2022-045AG
轨道中心:
EARTH
卫星名称:
星链-3728
卫星全名:
星链-3728 (STARLINK-3728 )
卫星状态:
在轨 (已飞行1332 天)
发射日期:
2022-04-29 UTC
国别 :
美国 (US)
星等 :
--
轨道信息
数据来源 国际轨道数据 AOE轨道数据
星历时间 2025-12-21T04:16:34+0800
4小时前
查看轨道信息
2025-12-15T18:00:00+0800
5天前
查看轨道信息
半长轴 6917.868km 6917.96km
偏心率 0.0001365 0.0001118
轨道倾角 53.217° 53.211°
近地点辐角 79.291° 75.932°
升交点赤经 193.066° 217.434°
平近点角 280.824° 303.184°
近地点 538.786km 539.051km
远地点 540.676km 540.599km
周期 95.437分钟 95.439分钟
每日圈数 15.088443 15.088142
详细信息
固有亮度:
5
最大亮度:
2.5
卫星平台:
Starlink v1.5
覆盖范围:
全球
运营商:
太空探索技术公司
运营商所在国:
美国
制造商(研发单位):
太空探索技术公司
制造商所在国:
美国
使用方式:
暂无
卫星简介
星链(Starlink)计划是由太空探索技术公司(SpaceX)提出的一个巨型低轨卫星互联网星座项目,计划在2019年至2024年间在太空搭建由约1.2万颗卫星组成的“星链”网络,其中1584颗将部署在地球上空550千米处的近地轨道,并从2020年开始工作。该卫星仍在工作。
2D轨道图
3D轨道图
轨道高度分析图
轨道倾角分析图
轨道综合分析图
查看轨道综合分析图